Tracking 27420 objects as of 29-May-2023
HD Live streaming from Space Station
objects crossing your sky now

STARLINK-1109

Track STARLINK-1109 now!
10-day predictions
STARLINK-1109 is classified as:


NORAD ID: 44945
Int'l Code: 2020-001AH
Perigee: 553.5 km
Apogee: 555.2 km
Inclination: 53.1 °
Period: 95.6 minutes
Semi major axis: 6925 km
RCS: Unknown
Launch date: January 7, 2020
Source: United States (US)
Launch site: AIR FORCE EASTERN TEST RANGE (AFETR)
Your satellite tracking list
Your tracking list is empty




NASA's NSSDC Master Catalog

Two Line Element Set (TLE):
1 44945U 20001AH  23148.87298885  .00001182  00000-0  98208-4 0  9995
2 44945  53.0543 206.7961 0001178  98.9257 261.1865 15.06403295187017
Source of the keplerian elements: AFSPC